Location: Camerons Lookout
(40.9833°S, 175.9333°E)
Time: 20:25:33
(UTC+00:00)

Cosmos 2208 Rocket - Pass Details

Date: 14 January 2026
Orbit: 750 x 802 km, 74.0° (Epoch: 15 February)

Event Time Altitude Azimuth Distance (km) Brightness Sun altitude
Rises 10:34:40 0° 197° (SSW) 3,304 8.7 -22.7°
Reaches altitude 10° 10:37:08 10° 193° (SSW) 2,360 7.6 -22.9°
Maximum altitude 10:42:27 64° 111° (ESE) 862 4.1 -23.3°
Enters shadow 10:43:21 54° 66° (ENE) 934 4.1 -23.4°
